Tracking 17145 objects as of 24-May-2015
HD Live streaming from Space Station

THORAD AGENA D DEB

Track THORAD AGENA D DEB now!
10-day predictions
THORAD AGENA D DEB is classified as:


NORAD ID: 4935
Int'l Code: 1970-025GB
Perigee: 913.7 km
Apogee: 1,010.9 km
Inclination: 99.9 °
Period: 104.2 minutes
Semi major axis: 7333 km
RCS: 0.0346 m2 (small)
Launch date: April 8, 1970
Source: United States (US)

Note: This is SATELLITE DEBRIS
Your satellite tracking list
Your tracking list is empty





NASA's NSSDC Master Catalog

Two Line Element Set (TLE):
1 04935U 70025GB  15143.20599108  .00000499  00000-0  49747-3 0  9999
2 04935 099.8882 012.3533 0066241 142.4508 341.7968 13.82463433258221

Source of the keplerian elements: AFSPC

N2YO: 382